STARLINK-34460, 66099

Orbit data source: Space-Track

STARLINK-34460, 66099 is a payload satellite owned by SpaceX/Seattle (US) in LEO that was launched on Sun, 19 Oct 2025 UTC via an FALCON 9 launch vehicle from the Air Force Western Test Range (AFWTR). Payload-class satellites include a variety of spacecraft equipped with specific instruments for various scientific and technological missions. These include communications satellites like Starlink; space stations such as the ISS; scientific satellites like the Hubble; Earth observation satellites from companies like Planet Labs, Umbra, and HawkEye 360; GPS; miniature CubeSats for education and research; and military/defense satellites.

Loading next visibility...
Identifier
66099, 2025-236P
Orbit
LEO
Country
Flag of USUS
Related business
Manufacturer
SpaceX/Seattle
Mission
Operational Commercial Communications
Bus & Motor
STARLINK V2MO, Unknown motor
Mass
575 kg wet, ~530 kg dry
Launch date (UTC)
2025-10-19 (8 months ago)
Launch vehicle
FALCON 9
Launch site
Air Force Western Test Range (AFWTR)
Object type
Payload
Rocket body
Debris
Shape & HBR
Box + 2 Pan, 17.7 m
Radar Cross Section
36.964 m², Large (>1 m²)

Expand to show TLE details & history
Last TLE update: 9 hours ago

TLE from 9 hours ago
0 STARLINK-34460
1 66099U 25236P   26171.45991909  .00025188  00000-0  85975-3 0  9992
2 66099  53.1607 346.1994 0001783  84.9469 275.1735 15.30196520 38686
Epoch: 2026-06-20T11:02Z
TLE epoch observation values (Epoch: 2026-06-20T11:02:17.009Z)
Latitude
-0.00004°
Longitude
-88.04573°
Altitude
476.015 km
Speed
7.629 km/s
True Right ascension
23h 04m 47s
True Declination
0° 00' 00"
Sunlit
Object was in daylight at epoch
Visualization orbit readout
Latitude
Unknown
Longitude
Unknown
Altitude
Unknown
Speed
Unknown
Apparent Right ascension
Unknown
Apparent Declination
Unknown
Sunlit
N/A
Visualization observer readout
Local Sidereal Time
07:18:54
Azimuth
Unknown
Elevation
Unknown
Doppler factor
Unknown
Orbital elements
Apogee altitude
476.704 km
Perigee altitude
474.26 km
Semi-major axis
6,853.619 km
Eccentricity
0.00018
Inclination
53.1607°
RAAN
346.1994°
Arg. of periapsis
84.9469°
True anomaly
275.15315°
Mean anomaly
275.1735°
Eccentric anomaly
275.16333°
Mean motion
3.82528 °/min
Orbital period
94.11 mins
BSTAR
0.00085975
Loading maneuver chart data...
Computing Atmospheric mass density...
Loading historical data...
Loading historical data...
Loading historical data...
Loading historical data...
Loading historical data...
Loading historical data...
Loading historical data...

Documentation

Showing up to 5 results
|